Wind_Speed
6 6 6 7 7 8 8 8 8 8 7 7 7 7 7 7 7 8 8 8 8 7 7 7 6 6 6 5 4 4 3 2 1 1 1 2 2 2 3 3 4 5 6
8 8 7 8 8 9 9 9 9 9 9 8 8 8 9 9 9 9 9 9 9 9 8 8 7 7 6 6 5 4 4 3 2 1 1 1 1 1 2 2 3 4 5
9 9 8 9 9 10 10 11 11 11 10 10 10 10 10 10 10 10 10 10 10 10 9 9 9 8 7 6 6 5 5 4 3 2 1 1 1 1 1 2 2 3 3
10 9 10 10 10 11 11 12 12 12 12 11 11 11 11 11 11 11 11 11 11 11 11 10 10 9 8 8 7 6 6 5 4 3 3 2 1 1 1 1 1 1 2
12 11 11 11 11 12 13 13 13 13 13 13 12 12 12 12 12 12 12 12 12 12 12 11 11 10 9 9 8 7 7 6 5 5 4 3 3 2 2 1 1 0 0
13 12 12 12 12 13 13 14 14 14 14 14 14 14 13 13 13 13 14 14 14 14 13 13 12 12 11 10 9 9 8 8 7 7 7 5 5 4 3 3 2 2 1
15 13 13 13 13 13 14 14 15 15 15 15 15 15 15 15 15 14 15 15 15 15 15 14 14 13 13 12 11 10 9 9 8 9 9 8 7 6 5 5 4 4 3
16 15 14 14 14 14 15 15 15 15 16 16 16 16 16 16 16 16 16 16 16 16 16 15 15 15 14 13 12 11 11 10 10 9 9 9 9 8 7 7 6 5 5
17 16 16 15 15 14 15 15 16 16 16 16 16 17 17 18 18 17 17 17 18 18 18 18 17 16 16 15 14 13 12 12 11 11 11 11 11 9 9 8 8 7 7
17 16 16 15 15 15 15 16 16 16 16 17 18 18 18 19 19 19 19 19 19 19 20 20 19 18 18 17 16 15 14 13 13 13 13 12 12 11 10 10 10 9 9
18 16 17 15 15 16 17 17 17 16 17 18 18 18 19 19 20 20 21 21 21 21 21 21 21 20 19 19 18 17 16 15 14 14 15 15 14 13 13 12 12 11 11
17 16 15 15 16 17 17 17 17 17 17 17 19 19 19 20 20 21 21 21 22 22 22 23 22 22 21 21 21 20 19 18 17 17 17 17 15 15 15 14 13 13 13
16 16 15 15 16 17 17 17 16 16 17 18 19 20 21 21 21 21 21 22 21 22 23 23 23 23 23 23 22 21 21 20 19 19 18 18 17 17 17 17 16 15 15
16 16 17 16 16 17 17 16 16 16 17 18 19 20 21 21 22 22 22 22 23 23 23 23 23 22 23 24 24 23 22 22 21 21 20 20 19 19 19 19 19 18 17
15 15 15 15 16 17 17 16 16 16 17 18 19 20 21 21 22 23 23 23 23 23 23 23 22 22 23 25 25 24 24 23 22 21 21 21 20 19 20 19 20 20 19
13 13 14 15 15 15 17 17 16 16 17 18 20 21 21 22 22 22 24 24 23 23 23 23 22 22 23 24 25 24 24 23 22 22 22 22 22 23 22 21 21 22 21
14 13 13 13 14 15 16 17 16 17 17 19 20 21 22 23 23 23 23 24 23 23 23 22 23 24 23 24 25 24 23 23 23 23 24 23 23 23 24 23 22 23 22
14 13 14 15 15 16 16 17 17 18 19 20 21 22 22 23 24 24 24 25 24 23 23 23 23 24 24 24 24 25 24 24 24 24 23 24 24 23 23 23 23 23 24
14 14 15 14 16 17 17 18 19 20 21 21 22 23 23 24 24 24 25 25 25 24 24 24 24 24 25 25 26 26 25 25 25 25 25 24 24 24 23 23 22 23 24
13 14 14 15 16 17 18 19 20 21 22 23 23 23 24 25 25 25 25 25 25 25 25 25 25 26 26 25 26 26 27 27 27 26 26 26 25 25 24 23 22 23 23
14 14 15 16 17 18 19 20 21 22 23 24 24 25 25 26 26 26 26 26 26 26 26 26 26 26 26 26 26 26 27 27 27 28 27 25 26 25 25 25 24 24 24
15 16 16 17 18 20 21 21 22 23 24 25 26 26 26 27 27 27 27 27 27 27 27 27 26 26 26 26 26 26 26 26 27 27 27 28 26 26 26 26 26 25 25
16 16 18 19 20 21 22 23 24 25 25 26 26 26 27 27 27 27 27 28 28 28 28 28 27 26 26 26 26 26 27 27 27 27 27 28 27 26 25 26 26 26 26
17 18 19 20 21 22 23 24 25 26 26 26 27 26 26 26 27 27 27 27 27 28 28 28 27 27 26 27 27 27 28 27 27 26 26 26 27 27 27 27 26 27 27
18 19 20 21 22 23 24 25 26 26 27 27 27 27 26 26 26 26 26 27 27 27 27 27 26 27 27 27 27 27 28 28 27 26 26 26 27 28 28 28 28 28 27
18 19 21 22 23 24 25 25 26 26 27 27 27 27 26 26 26 26 26 26 26 26 26 26 26 26 26 26 26 26 26 26 26 26 26 27 27 27 27 28 28 29 29
Wind_Direction
267 255 237 224 219 214 215 216 221 225 231 237 241 249 260 268 274 279 283 285 288 295 302 308 315 322 328 327 330 334 333 331 336 19 61 72 75 84 89 87 85 84 85
261 255 244 235 232 228 224 226 229 231 235 241 245 251 259 266 272 277 280 285 287 291 296 303 310 317 320 320 322 325 324 324 329 329 17 43 45 54 70 76 78 81 84
259 253 249 241 236 234 232 233 235 238 240 243 247 252 258 263 268 274 278 282 286 288 292 297 303 310 314 316 318 317 317 316 315 307 304 325 359 17 43 62 71 79 84
258 259 253 246 243 240 238 237 239 242 243 245 248 252 256 260 264 270 274 278 282 284 288 292 296 302 307 310 312 311 308 308 300 295 294 291 303 308 332 18 67 81 86
257 258 254 248 246 242 240 240 241 243 246 247 249 251 255 258 262 267 272 275 278 281 284 288 292 296 299 302 303 304 302 298 293 291 285 277 275 274 277 283 267 190 115
255 252 249 246 246 244 242 242 242 243 246 248 250 252 254 257 261 265 269 272 274 276 279 282 287 290 293 295 297 297 295 291 288 287 281 271 268 264 264 265 267 253 240
250 246 246 242 242 242 242 243 243 244 246 248 249 251 255 259 262 265 268 270 271 272 274 277 281 284 286 288 289 290 290 287 284 280 278 271 263 257 255 257 261 259 251
247 245 242 242 242 243 244 245 246 248 250 251 251 253 256 258 261 264 266 268 269 269 270 272 276 278 279 280 281 282 283 282 280 277 274 272 263 255 252 253 255 256 255
241 238 237 238 242 244 245 247 248 251 253 253 253 254 257 259 260 263 265 266 268 268 268 269 270 273 274 274 275 276 277 277 277 272 269 268 262 258 254 252 253 254 255
239 241 236 236 238 241 244 245 247 251 253 254 255 256 259 261 261 262 263 265 267 268 267 268 268 268 271 271 272 273 275 274 274 270 268 266 262 261 258 253 252 253 254
245 245 237 237 238 241 243 244 247 252 255 255 256 258 262 263 263 265 265 267 268 267 267 267 266 265 267 269 270 271 272 273 271 269 266 267 263 259 259 255 253 252 253
247 246 237 236 239 243 245 245 246 251 254 256 257 259 263 265 265 267 267 268 270 268 268 267 266 264 265 265 267 269 269 270 268 265 264 264 262 264 261 258 254 252 253
240 245 245 239 240 243 245 248 248 252 255 257 259 259 262 264 266 270 269 268 268 269 267 265 265 265 264 263 264 265 266 268 268 266 263 262 264 260 261 259 254 254 254
247 246 249 244 244 245 248 250 249 253 256 257 260 263 266 265 268 268 269 269 268 270 268 266 265 266 265 263 264 264 265 266 266 265 262 261 261 260 260 261 257 255 256
254 249 250 250 252 248 248 251 253 256 261 261 263 264 265 265 265 266 270 271 271 272 270 268 267 266 265 264 265 264 265 264 262 260 260 260 261 262 261 261 258 255 256
262 259 263 261 253 251 252 252 252 257 260 262 266 267 266 265 264 265 267 268 269 272 271 267 266 266 265 263 264 266 264 260 259 258 259 260 261 262 262 262 262 259 257
268 269 271 268 259 259 258 258 260 261 262 262 264 266 268 268 268 268 267 266 267 268 269 269 268 266 267 266 263 261 261 260 260 259 260 259 262 261 260 261 262 258 258
267 275 273 269 268 267 269 267 265 265 264 264 265 267 268 269 268 268 268 268 267 266 267 267 268 268 268 267 263 262 262 261 259 259 263 263 261 259 259 260 261 257 258
268 272 271 270 274 273 274 275 273 271 269 267 268 268 269 270 270 269 268 269 269 268 268 268 268 268 268 267 264 261 262 262 259 260 262 262 261 257 257 260 259 256 255
265 265 267 270 273 275 277 277 276 275 273 271 271 271 271 272 272 272 270 270 271 271 269 268 270 269 268 267 264 261 261 262 260 260 261 261 261 258 255 258 259 256 254
269 270 271 270 274 278 278 278 279 278 276 274 272 273 274 273 272 272 271 270 271 271 270 270 271 269 268 265 263 261 262 263 261 260 260 261 259 256 256 256 257 257 254
272 272 274 277 279 280 280 280 279 279 279 278 277 276 276 276 274 274 273 272 271 270 270 269 270 268 267 264 261 260 261 262 262 262 261 260 256 255 255 254 255 256 254
274 274 277 280 282 283 282 281 281 281 280 280 278 277 276 275 275 275 275 274 272 270 269 269 268 268 266 264 261 260 262 263 263 263 264 260 257 254 253 254 255 256 253
275 278 281 283 284 283 282 282 282 282 282 280 279 277 276 275 274 275 275 275 272 271 270 269 267 267 266 265 264 263 263 264 264 263 261 261 260 258 258 258 257 257 256
279 281 283 284 285 284 283 282 283 283 283 282 279 278 276 276 275 275 274 275 274 272 271 270 269 266 264 265 265 263 264 265 264 263 261 261 261 261 259 258 257 258 259
284 286 287 287 287 287 286 285 284 284 284 283 281 279 277 276 275 274 272 274 274 274 273 272 269 266 264 265 265 265 266 266 265 264 263 263 263 262 258 258 257 258 259
Height
5906 5905 5906 5906 5907 5908 5908 5909 5909 5910 5910 5910 5910 5910 5910 5910 5910 5910 5910 5910 5909 5909 5908 5907 5907 5906 5905 5904 5903 5902 5902 5901 5900 5899 5898 5897 5897 5896 5895 5894 5894 5893 5892
5905 5905 5905 5905 5906 5907 5907 5908 5908 5909 5909 5909 5909 5910 5910 5909 5909 5909 5909 5909 5909 5908 5908 5907 5907 5906 5905 5904 5903 5903 5902 5901 5900 5899 5899 5898 5897 5896 5895 5895 5894 5893 5893
5903 5903 5904 5905 5905 5906 5906 5907 5907 5908 5908 5908 5908 5908 5909 5909 5909 5908 5908 5908 5908 5907 5907 5906 5906 5905 5905 5904 5903 5902 5902 5901 5900 5899 5898 5897 5897 5896 5896 5895 5894 5894 5893
5902 5902 5903 5904 5904 5904 5905 5906 5906 5906 5907 5907 5907 5907 5907 5907 5907 5907 5907 5907 5907 5906 5906 5905 5905 5904 5904 5903 5902 5902 5901 5900 5899 5898 5898 5897 5897 5896 5896 5895 5895 5894 5894
5900 5901 5901 5902 5902 5903 5903 5904 5904 5905 5905 5905 5905 5905 5906 5906 5906 5906 5906 5905 5905 5905 5905 5904 5903 5903 5903 5902 5901 5901 5900 5899 5898 5898 5897 5897 5896 5896 5896 5895 5895 5894 5894
5897 5898 5898 5899 5900 5900 5901 5901 5902 5902 5903 5903 5903 5904 5904 5904 5904 5904 5904 5904 5904 5903 5903 5902 5902 5901 5901 5901 5900 5900 5899 5898 5898 5897 5897 5896 5896 5896 5895 5895 5895 5894 5894
5894 5895 5895 5896 5897 5898 5898 5899 5899 5900 5900 5901 5901 5901 5901 5902 5902 5902 5902 5902 5901 5901 5901 5900 5900 5900 5899 5899 5898 5898 5898 5897 5897 5896 5896 5895 5895 5894 5894 5894 5894 5894 5894
5891 5892 5893 5894 5894 5895 5896 5896 5897 5897 5898 5898 5898 5898 5899 5899 5899 5899 5899 5899 5899 5899 5898 5898 5897 5897 5897 5896 5896 5896 5896 5895 5895 5895 5894 5894 5893 5893 5893 5893 5893 5893 5893
5887 5888 5889 5890 5891 5892 5893 5893 5894 5894 5895 5895 5895 5895 5895 5895 5896 5896 5896 5895 5895 5895 5895 5895 5894 5894 5894 5893 5893 5893 5893 5893 5893 5892 5892 5892 5891 5891 5891 5891 5891 5892 5892
5883 5884 5885 5886 5887 5888 5889 5890 5890 5891 5891 5892 5892 5892 5892 5892 5892 5892 5892 5892 5892 5892 5891 5891 5891 5891 5890 5890 5890 5890 5890 5890 5890 5890 5889 5889 5889 5889 5889 5889 5889 5889 5890
5879 5880 5880 5882 5883 5884 5885 5886 5886 5887 5887 5888 5888 5888 5889 5889 5888 5888 5888 5888 5888 5887 5887 5887 5887 5887 5887 5887 5887 5887 5887 5887 5887 5887 5887 5886 5886 5887 5887 5887 5887 5887 5888
5874 5875 5876 5877 5879 5880 5881 5882 5882 5883 5883 5884 5885 5885 5885 5885 5884 5884 5884 5883 5883 5883 5883 5883 5883 5883 5883 5883 5883 5883 5883 5883 5883 5883 5883 5883 5883 5884 5884 5884 5884 5885 5885
5870 5872 5873 5874 5875 5876 5877 5877 5878 5879 5879 5880 5880 5881 5881 5880 5880 5880 5879 5878 5878 5878 5877 5877 5878 5878 5878 5878 5879 5879 5879 5879 5879 5880 5880 5879 5880 5881 5881 5881 5881 5881 5882
5867 5869 5870 5870 5871 5872 5872 5873 5874 5875 5875 5875 5876 5876 5876 5876 5875 5875 5874 5873 5873 5873 5873 5872 5872 5873 5873 5874 5874 5874 5874 5874 5875 5876 5876 5875 5875 5876 5877 5878 5878 5878 5878
5863 5865 5866 5866 5867 5867 5868 5869 5870 5871 5871 5871 5871 5871 5871 5871 5870 5870 5869 5868 5868 5868 5868 5867 5867 5868 5868 5868 5869 5869 5869 5869 5869 5870 5871 5871 5871 5871 5872 5873 5873 5874 5874
5861 5861 5862 5862 5862 5863 5864 5864 5865 5866 5866 5866 5866 5866 5865 5865 5864 5864 5863 5863 5863 5863 5862 5862 5862 5863 5862 5862 5863 5863 5863 5864 5864 5865 5866 5866 5866 5867 5867 5867 5868 5869 5870
5858 5857 5858 5858 5859 5859 5859 5860 5860 5860 5861 5861 5861 5860 5860 5859 5859 5858 5858 5858 5857 5857 5857 5857 5857 5857 5857 5857 5857 5858 5858 5858 5859 5859 5860 5860 5861 5861 5862 5862 5863 5864 5864
5853 5853 5854 5855 5855 5855 5855 5855 5856 5856 5856 5856 5855 5855 5854 5853 5853 5853 5853 5852 5852 5852 5852 5852 5852 5851 5851 5852 5852 5853 5853 5853 5853 5854 5855 5855 5856 5856 5857 5857 5858 5858 5859
5850 5850 5850 5850 5851 5851 5851 5851 5851 5851 5850 5850 5849 5849 5848 5848 5847 5847 5847 5846 5846 5846 5846 5846 5846 5845 5845 5846 5846 5846 5847 5847 5847 5848 5849 5850 5850 5851 5851 5851 5852 5853 5854
5846 5846 5846 5846 5846 5846 5846 5845 5845 5845 5844 5844 5844 5843 5842 5842 5841 5841 5840 5840 5840 5840 5839 5840 5840 5839 5839 5839 5839 5840 5840 5841 5842 5842 5843 5844 5844 5845 5845 5846 5847 5847 5848
5843 5843 5843 5843 5842 5842 5841 5840 5840 5839 5839 5838 5837 5837 5836 5835 5835 5834 5833 5833 5833 5833 5833 5833 5833 5833 5833 5833 5833 5834 5834 5834 5835 5836 5836 5837 5838 5838 5839 5840 5841 5842 5843
5839 5839 5839 5838 5837 5837 5836 5835 5834 5834 5833 5832 5831 5830 5829 5829 5828 5827 5827 5826 5826 5826 5826 5826 5826 5826 5826 5826 5827 5827 5828 5829 5829 5829 5830 5831 5831 5832 5833 5834 5835 5836 5837
5835 5835 5835 5834 5833 5832 5830 5830 5829 5828 5827 5826 5825 5824 5823 5822 5821 5821 5820 5819 5819 5819 5819 5819 5819 5819 5820 5820 5821 5821 5822 5822 5822 5823 5823 5824 5824 5825 5826 5828 5829 5829 5830
5831 5830 5829 5828 5827 5826 5825 5824 5822 5821 5820 5819 5818 5817 5816 5815 5814 5814 5813 5812 5811 5811 5811 5811 5812 5812 5813 5813 5814 5814 5815 5816 5816 5816 5817 5817 5818 5819 5820 5821 5822 5823 5823
5825 5824 5823 5822 5821 5819 5818 5817 5815 5814 5813 5812 5811 5810 5809 5808 5807 5807 5806 5805 5804 5804 5804 5804 5804 5805 5806 5806 5807 5807 5808 5809 5809 5810 5810 5811 5812 5812 5813 5814 5815 5816 5816
5819 5818 5817 5815 5814 5813 5811 5810 5808 5807 5806 5804 5803 5802 5802 5801 5800 5800 5799 5798 5798 5797 5797 5797 5798 5798 5799 5800 5800 5801 5801 5802 5802 5803 5803 5804 5805 5806 5806 5807 5808 5808 5809